{"data":{"norad_id":58592,"intl_designator":"2023-200D","name":"STARLINK-31096","alt_names":[],"object_type":"PAYLOAD","status":"ACTIVE","operator":null,"country":"US","launch_date":"2023-12-19","launch_site_code":"AFETR","launch_vehicle":null,"mission":null,"orbit_class":"UNKNOWN","rcs_meters":null,"size_class":null,"mass_kg":null,"dimensions":null,"purposes":["comms"],"wikipedia_slug":null,"has_3d_model":false,"image_url":null,"decayed_at":null,"tle_current":{"epoch":"2026-05-25T03:56:06.714240Z","epoch_age_seconds":64107,"freshness":"FRESH","line1":"1 58592U 23200D   26145.16396660  .00052939  00000+0  16853-2 0  9993","line2":"2 58592  42.9964  97.2008 0009740 168.0197 192.0889 15.31757888135305","mean_motion":15.31757888,"eccentricity":0.000974,"inclination_deg":42.9964,"raan_deg":97.2008,"arg_perigee_deg":168.0197,"mean_anomaly_deg":192.0889,"bstar":0.0016853,"rev_number":13530,"period_min":94.009635026603,"perigee_km":463.89680142031,"apogee_km":477.23807766854,"semimajor_km":6848.7044395444,"source":"CELESTRAK","updated_at":"2026-05-25T13:38:18.665429Z"}}}